| time (UTC) | temp F | wind direction | speed knots | gust knots | rain 1hr in | rain 24hr in | rain mn in | humidity % | barometer mb |
| 20260508012740 | 48 | 53 | 0.0 | 1.7 | 0.00 | 0.02 | 0.02 | 66 | 1014.9 |
| 20260508012237 | 47 | 314 | 0.9 | 1.7 | 0.00 | 0.02 | 0.02 | 66 | 1014.9 |
| 20260508011735 | 48 | 44 | 0.0 | 0.9 | 0.00 | 0.02 | 0.02 | 64 | 1014.8 |
| 20260508011232 | 48 | 260 | 0.9 | 2.6 | 0.00 | 0.02 | 0.02 | 66 | 1014.9 |
| 20260508010728 | 48 | 54 | 0.9 | 1.7 | 0.00 | 0.02 | 0.02 | 65 | 1014.5 |
| 20260508010227 | 49 | 119 | 0.0 | 1.7 | 0.00 | 0.02 | 0.02 | 65 | 1014.7 |
| 20260508005723 | 49 | 55 | 0.0 | 0.0 | 0.00 | 0.02 | 0.02 | 63 | 1014.6 |
| 20260508005220 | 50 | 32 | 0.0 | 1.7 | 0.00 | 0.02 | 0.02 | 62 | 1014.6 |
| 20260508004716 | 51 | 41 | 0.9 | 1.7 | 0.00 | 0.02 | 0.02 | 58 | 1014.4 |
| 20260508004212 | 51 | 13 | 1.7 | 1.7 | 0.00 | 0.02 | 0.02 | 57 | 1014.3 |
| 20260508003709 | 51 | 47 | 0.9 | 1.7 | 0.00 | 0.02 | 0.02 | 54 | 1014.1 |
| 20260508003206 | 52 | 4 | 0.0 | 1.7 | 0.00 | 0.02 | 0.02 | 55 | 1014.1 |
| 20260508002703 | 53 | 345 | 1.7 | 1.7 | 0.00 | 0.02 | 0.02 | 51 | 1014.1 |
| 20260508002201 | 53 | 32 | 1.7 | 1.7 | 0.00 | 0.02 | 0.02 | 47 | 1014.1 |
| 20260508001656 | 54 | 58 | 1.7 | 2.6 | 0.00 | 0.02 | 0.02 | 46 | 1014.0 |
| 20260508001152 | 54 | 66 | 0.9 | 1.7 | 0.00 | 0.02 | 0.02 | 45 | 1013.7 |
| 20260508000648 | 55 | 271 | 1.7 | 1.7 | 0.00 | 0.02 | 0.02 | 42 | 1014.0 |
| 20260508000145 | 56 | 22 | 0.9 | 2.6 | 0.00 | 0.02 | 0.02 | 42 | 1014.1 |
| 20260507235642 | 55 | 43 | 7.8 | 8.7 | 0.00 | 0.02 | 0.02 | 41 | 1013.9 |
| 20260507235139 | 56 | 244 | 2.6 | 2.6 | 0.00 | 0.02 | 0.02 | 41 | 1013.7 |
| 20260507234636 | 56 | 19 | 1.7 | 6.1 | 0.00 | 0.02 | 0.02 | 41 | 1013.7 |
| 20260507234132 | 56 | 54 | 0.9 | 3.5 | 0.00 | 0.02 | 0.02 | 42 | 1013.6 |
| 20260507233629 | 56 | 354 | 0.9 | 4.3 | 0.00 | 0.02 | 0.02 | 41 | 1013.6 |
| 20260507233128 | 56 | 338 | 2.6 | 4.3 | 0.00 | 0.02 | 0.02 | 39 | 1013.7 |
| 20260507232625 | 56 | 5 | 2.6 | 2.6 | 0.00 | 0.02 | 0.02 | 41 | 1013.3 |
| 20260507232121 | 56 | 5 | 4.3 | 6.1 | 0.00 | 0.02 | 0.02 | 39 | 1013.4 |
| 20260507231617 | 57 | 23 | 1.7 | 5.2 | 0.00 | 0.02 | 0.02 | 43 | 1013.5 |
| 20260507231115 | 57 | 213 | 2.6 | 5.2 | 0.00 | 0.02 | 0.02 | 39 | 1013.6 |
| 20260507230611 | 57 | 339 | 1.7 | 5.2 | 0.00 | 0.02 | 0.02 | 39 | 1013.5 |
| 20260507230108 | 58 | 2 | 1.7 | 2.6 | 0.00 | 0.02 | 0.02 | 39 | 1013.3 |
| 20260507225603 | 57 | 357 | 0.0 | 5.2 | 0.00 | 0.02 | 0.02 | 40 | 1013.2 |
| 20260507225100 | 58 | 316 | 1.7 | 7.0 | 0.00 | 0.02 | 0.02 | 40 | 1013.1 |
| 20260507224555 | 57 | 23 | 7.0 | 10.4 | 0.00 | 0.02 | 0.02 | 39 | 1012.9 |
| 20260507224052 | 58 | 66 | 4.3 | 11.3 | 0.00 | 0.02 | 0.02 | 40 | 1013.2 |
| 20260507223548 | 58 | 20 | 7.8 | 8.7 | 0.00 | 0.02 | 0.02 | 39 | 1013.1 |
| 20260507223045 | 57 | 6 | 7.0 | 13.9 | 0.00 | 0.02 | 0.02 | 40 | 1012.8 |
| 20260507222542 | 58 | 234 | 1.7 | 5.2 | 0.00 | 0.02 | 0.02 | 41 | 1012.9 |
| 20260507222039 | 58 | 53 | 1.7 | 5.2 | 0.00 | 0.02 | 0.02 | 42 | 1013.1 |
| 20260507221535 | 58 | 338 | 2.6 | 10.4 | 0.00 | 0.02 | 0.02 | 39 | 1013.2 |
| 20260507221032 | 58 | 240 | 5.2 | 5.2 | 0.00 | 0.02 | 0.02 | 40 | 1012.8 |
| 20260507220529 | 58 | 6 | 2.6 | 4.3 | 0.00 | 0.02 | 0.02 | 40 | 1012.8 |
| 20260507220027 | 59 | 8 | 4.3 | 7.8 | 0.00 | 0.02 | 0.02 | 40 | 1012.7 |
| 20260507215523 | 59 | 300 | 1.7 | 5.2 | 0.00 | 0.02 | 0.02 | 41 | 1012.7 |
| 20260507215021 | 59 | 349 | 5.2 | 8.7 | 0.00 | 0.02 | 0.02 | 41 | 1012.6 |
| 20260507214518 | 59 | 316 | 2.6 | 9.6 | 0.00 | 0.02 | 0.02 | 37 | 1012.5 |
| 20260507214014 | 58 | 32 | 2.6 | 5.2 | 0.00 | 0.02 | 0.02 | 39 | 1012.3 |
| 20260507213510 | 60 | 346 | 4.3 | 6.1 | 0.00 | 0.02 | 0.02 | 37 | 1012.5 |
| 20260507213007 | 57 | 327 | 0.9 | 4.3 | 0.00 | 0.02 | 0.02 | 42 | 1012.3 |
| 20260507212502 | 58 | 348 | 5.2 | 6.1 | 0.00 | 0.02 | 0.02 | 42 | 1012.5 |
| 20260507212000 | 59 | 0 | 4.3 | 10.4 | 0.00 | 0.02 | 0.02 | 41 | 1012.6 |
| 20260507211456 | 61 | 34 | 4.3 | 5.2 | 0.00 | 0.02 | 0.02 | 40 | 1012.7 |
| 20260507210953 | 62 | 229 | 2.6 | 4.3 | 0.00 | 0.02 | 0.02 | 37 | 1012.2 |
| 20260507210450 | 59 | 352 | 4.3 | 7.0 | 0.00 | 0.02 | 0.02 | 40 | 1012.2 |
| 20260507205947 | 60 | 25 | 4.3 | 7.8 | 0.00 | 0.02 | 0.02 | 40 | 1012.2 |
| 20260507205444 | 58 | 221 | 6.1 | 6.1 | 0.00 | 0.02 | 0.02 | 38 | 1012.0 |
| 20260507204940 | 58 | 249 | 3.5 | 5.2 | 0.00 | 0.02 | 0.02 | 40 | 1012.0 |
| 20260507204436 | 60 | 13 | 1.7 | 7.8 | 0.00 | 0.02 | 0.02 | 37 | 1012.4 |
| 20260507203934 | 61 | 254 | 3.5 | 7.0 | 0.00 | 0.02 | 0.02 | 36 | 1012.5 |
| 20260507203431 | 60 | 352 | 1.7 | 4.3 | 0.00 | 0.02 | 0.02 | 36 | 1012.4 |
| 20260507202928 | 60 | 321 | 6.1 | 7.8 | 0.00 | 0.02 | 0.02 | 40 | 1012.3 |
| 20260507202419 | 60 | 111 | 1.7 | 5.2 | 0.00 | 0.02 | 0.02 | 39 | 1012.4 |
| 20260507201914 | 58 | 242 | 7.0 | 11.3 | 0.00 | 0.02 | 0.02 | 43 | 1012.7 |
| 20260507201410 | 59 | 27 | 5.2 | 10.4 | 0.00 | 0.02 | 0.02 | 41 | 1012.6 |
| 20260507200907 | 59 | 342 | 4.3 | 14.8 | 0.00 | 0.02 | 0.02 | 43 | 1012.5 |
| 20260507200403 | 59 | 352 | 3.5 | 12.2 | 0.00 | 0.02 | 0.02 | 41 | 1012.8 |
| 20260507195859 | 60 | 278 | 2.6 | 9.6 | 0.00 | 0.02 | 0.02 | 40 | 1012.8 |
| 20260507195356 | 59 | 226 | 3.5 | 10.4 | 0.00 | 0.02 | 0.02 | 43 | 1013.0 |
| 20260507194853 | 60 | 264 | 2.6 | 7.0 | 0.00 | 0.02 | 0.02 | 38 | 1012.9 |
| 20260507194350 | 61 | 238 | 7.0 | 8.7 | 0.00 | 0.02 | 0.02 | 41 | 1012.8 |
| 20260507193846 | 61 | 354 | 1.7 | 11.3 | 0.00 | 0.02 | 0.02 | 38 | 1012.8 |
| 20260507193343 | 60 | 1 | 4.3 | 6.1 | 0.00 | 0.02 | 0.02 | 40 | 1013.0 |
| 20260507192839 | 58 | 106 | 2.6 | 4.3 | 0.00 | 0.02 | 0.02 | 42 | 1012.9 |
| 20260507192336 | 60 | 15 | 3.5 | 7.0 | 0.00 | 0.02 | 0.02 | 37 | 1013.1 |
| 20260507191832 | 57 | 40 | 3.5 | 7.0 | 0.00 | 0.02 | 0.02 | 46 | 1013.0 |
| 20260507191329 | 58 | 34 | 5.2 | 7.0 | 0.00 | 0.02 | 0.02 | 41 | 1012.8 |
| 20260507190826 | 59 | 357 | 5.2 | 10.4 | 0.00 | 0.02 | 0.02 | 42 | 1012.9 |
| 20260507190324 | 59 | 342 | 4.3 | 7.0 | 0.00 | 0.02 | 0.02 | 41 | 1012.7 |
| 20260507185823 | 60 | 16 | 8.7 | 10.4 | 0.00 | 0.02 | 0.02 | 39 | 1012.7 |
| 20260507185319 | 61 | 6 | 4.3 | 10.4 | 0.00 | 0.02 | 0.02 | 45 | 1013.0 |
| 20260507184816 | 60 | 23 | 2.6 | 10.4 | 0.00 | 0.02 | 0.02 | 40 | 1013.0 |
| 20260507184314 | 60 | 301 | 2.6 | 5.2 | 0.00 | 0.02 | 0.02 | 43 | 1013.2 |
| 20260507183811 | 58 | 180 | 1.7 | 7.0 | 0.00 | 0.02 | 0.02 | 43 | 1013.3 |
| 20260507183308 | 60 | 28 | 7.0 | 13.9 | 0.00 | 0.02 | 0.02 | 42 | 1013.2 |
| 20260507182805 | 59 | 11 | 6.1 | 7.8 | 0.00 | 0.02 | 0.02 | 43 | 1012.9 |
| 20260507182300 | 60 | 283 | 2.6 | 7.0 | 0.00 | 0.02 | 0.02 | 45 | 1013.1 |
| 20260507181757 | 60 | 24 | 2.6 | 5.2 | 0.00 | 0.02 | 0.02 | 45 | 1013.0 |
| 20260507181253 | 60 | 244 | 11.3 | 11.3 | 0.00 | 0.02 | 0.02 | 45 | 1013.2 |
| 20260507180750 | 59 | 28 | 3.5 | 5.2 | 0.00 | 0.02 | 0.02 | 44 | 1013.1 |
| 20260507180247 | 59 | 6 | 4.3 | 8.7 | 0.00 | 0.02 | 0.02 | 46 | 1013.2 |
| 20260507175742 | 59 | 248 | 4.3 | 9.6 | 0.00 | 0.02 | 0.02 | 43 | 1013.2 |
| 20260507175240 | 59 | 345 | 5.2 | 7.0 | 0.00 | 0.02 | 0.02 | 50 | 1013.1 |
| 20260507174737 | 58 | 264 | 1.7 | 10.4 | 0.00 | 0.02 | 0.02 | 45 | 1012.8 |
| 20260507174235 | 59 | 62 | 3.5 | 6.1 | 0.00 | 0.02 | 0.02 | 45 | 1013.1 |
| 20260507173733 | 59 | 24 | 5.2 | 7.8 | 0.00 | 0.02 | 0.02 | 46 | 1013.1 |
| 20260507173229 | 59 | 239 | 2.6 | 6.1 | 0.00 | 0.02 | 0.02 | 43 | 1013.3 |
| 20260507172726 | 58 | 20 | 0.0 | 4.3 | 0.00 | 0.02 | 0.02 | 44 | 1013.6 |
| 20260507172223 | 58 | 303 | 0.9 | 6.1 | 0.00 | 0.02 | 0.02 | 48 | 1013.4 |
| 20260507171722 | 59 | 15 | 4.3 | 8.7 | 0.00 | 0.02 | 0.02 | 50 | 1013.7 |
| 20260507171220 | 58 | 121 | 2.6 | 5.2 | 0.00 | 0.02 | 0.02 | 49 | 1013.5 |
| 20260507170717 | 57 | 85 | 1.7 | 4.3 | 0.00 | 0.02 | 0.02 | 50 | 1013.6 |
| 20260507170214 | 57 | 264 | 3.5 | 5.2 | 0.00 | 0.02 | 0.02 | 57 | 1014.1 |
| 20260507165709 | 56 | 359 | 6.1 | 7.8 | 0.00 | 0.02 | 0.02 | 49 | 1014.1 |
| 20260507165206 | 55 | 69 | 0.9 | 7.8 | 0.00 | 0.02 | 0.02 | 52 | 1014.1 |
| 20260507164702 | 56 | 213 | 2.6 | 5.2 | 0.00 | 0.02 | 0.02 | 54 | 1014.2 |
| 20260507164200 | 57 | 319 | 2.6 | 8.7 | 0.00 | 0.02 | 0.02 | 51 | 1014.3 |
| 20260507163656 | 58 | 257 | 4.3 | 11.3 | 0.00 | 0.02 | 0.02 | 53 | 1014.1 |
| 20260507163154 | 57 | 221 | 7.8 | 9.6 | 0.00 | 0.02 | 0.02 | 50 | 1014.4 |
| 20260507162650 | 55 | 305 | 2.6 | 9.6 | 0.00 | 0.02 | 0.02 | 52 | 1014.5 |
| 20260507162146 | 55 | 8 | 5.2 | 7.8 | 0.00 | 0.02 | 0.02 | 59 | 1014.5 |
| 20260507161642 | 55 | 336 | 2.6 | 4.3 | 0.00 | 0.02 | 0.02 | 54 | 1014.5 |
| 20260507161139 | 54 | 120 | 0.0 | 7.8 | 0.00 | 0.02 | 0.02 | 55 | 1014.4 |
| 20260507160636 | 57 | 31 | 6.1 | 8.7 | 0.00 | 0.02 | 0.02 | 55 | 1014.6 |
| 20260507160132 | 55 | 232 | 4.3 | 7.0 | 0.00 | 0.02 | 0.02 | 57 | 1014.6 |
| 20260507155627 | 55 | 233 | 4.3 | 7.8 | 0.00 | 0.02 | 0.02 | 53 | 1014.9 |
| 20260507155119 | 54 | 228 | 2.6 | 6.1 | 0.00 | 0.02 | 0.02 | 60 | 1014.5 |
| 20260507154616 | 54 | 221 | 5.2 | 9.6 | 0.00 | 0.02 | 0.02 | 60 | 1014.8 |
| 20260507154113 | 53 | 357 | 1.7 | 4.3 | 0.00 | 0.02 | 0.02 | 58 | 1014.6 |
| 20260507153609 | 53 | 43 | 2.6 | 5.2 | 0.00 | 0.02 | 0.02 | 60 | 1014.5 |
| 20260507153106 | 54 | 344 | 4.3 | 4.3 | 0.00 | 0.02 | 0.02 | 59 | 1014.6 |
| 20260507152602 | 54 | 310 | 0.9 | 3.5 | 0.00 | 0.02 | 0.02 | 59 | 1014.6 |
| 20260507152058 | 53 | 62 | 3.5 | 5.2 | 0.00 | 0.02 | 0.02 | 59 | 1014.8 |
| 20260507151554 | 53 | 108 | 0.0 | 1.7 | 0.00 | 0.02 | 0.02 | 65 | 1014.8 |
| 20260507151052 | 53 | 105 | 0.0 | 4.3 | 0.00 | 0.02 | 0.02 | 60 | 1014.8 |
| 20260507150549 | 53 | 168 | 1.7 | 3.5 | 0.00 | 0.02 | 0.02 | 63 | 1014.9 |
| 20260507150045 | 53 | 280 | 1.7 | 7.0 | 0.00 | 0.02 | 0.02 | 65 | 1015.0 |
| 20260507145540 | 54 | 224 | 6.1 | 7.8 | 0.00 | 0.02 | 0.02 | 61 | 1015.1 |
| 20260507145038 | 50 | 95 | 1.7 | 1.7 | 0.00 | 0.02 | 0.02 | 67 | 1015.1 |
| 20260507144534 | 54 | 251 | 6.1 | 7.8 | 0.00 | 0.02 | 0.02 | 67 | 1015.2 |
| 20260507144026 | 52 | 214 | 1.7 | 1.7 | 0.00 | 0.02 | 0.02 | 68 | 1015.3 |
| 20260507143523 | 51 | 53 | 1.7 | 2.6 | 0.00 | 0.02 | 0.02 | 72 | 1015.3 |
| 20260507143021 | 51 | 345 | 1.7 | 3.5 | 0.00 | 0.02 | 0.02 | 71 | 1015.5 |
| 20260507142515 | 52 | 18 | 0.9 | 2.6 | 0.00 | 0.02 | 0.02 | 71 | 1015.5 |
| 20260507142013 | 51 | 32 | 1.7 | 2.6 | 0.00 | 0.02 | 0.02 | 73 | 1015.8 |
| 20260507141509 | 51 | 53 | 2.6 | 2.6 | 0.00 | 0.02 | 0.02 | 72 | 1015.8 |
| 20260507141007 | 50 | 353 | 2.6 | 2.6 | 0.00 | 0.02 | 0.02 | 76 | 1015.7 |
| 20260507140502 | 50 | 353 | 1.7 | 1.7 | 0.00 | 0.02 | 0.02 | 78 | 1015.8 |
| 20260507140000 | 51 | 284 | 1.7 | 1.7 | 0.00 | 0.02 | 0.02 | 76 | 1015.8 |
| 20260507135456 | 50 | 88 | 0.9 | 1.7 | 0.00 | 0.02 | 0.02 | 77 | 1015.8 |
| 20260507134953 | 50 | 33 | 2.6 | 2.6 | 0.00 | 0.02 | 0.02 | 79 | 1016.1 |
| 20260507134450 | 50 | 263 | 2.6 | 2.6 | 0.00 | 0.02 | 0.02 | 77 | 1016.1 |
| 20260507133946 | 50 | 20 | 1.7 | 2.6 | 0.00 | 0.02 | 0.02 | 81 | 1016.2 |
| 20260507133442 | 49 | 121 | 1.7 | 2.6 | 0.00 | 0.02 | 0.02 | 79 | 1016.2 |
| 20260507132941 | 49 | 67 | 2.6 | 3.5 | 0.00 | 0.02 | 0.02 | 80 | 1016.1 |
| 20260507132437 | 49 | 4 | 1.7 | 2.6 | 0.00 | 0.02 | 0.02 | 80 | 1016.3 |
| 20260507131933 | 48 | 352 | 0.0 | 1.7 | 0.00 | 0.02 | 0.02 | 81 | 1016.4 |
| 20260507131430 | 49 | 61 | 3.5 | 3.5 | 0.00 | 0.02 | 0.02 | 80 | 1016.1 |
| 20260507130927 | 49 | 57 | 1.7 | 2.6 | 0.00 | 0.02 | 0.02 | 81 | 1016.0 |
| 20260507130424 | 49 | 310 | 0.0 | 1.7 | 0.00 | 0.02 | 0.02 | 82 | 1016.2 |
| 20260507125923 | 48 | 26 | 0.9 | 0.9 | 0.00 | 0.02 | 0.02 | 85 | 1016.1 |
| 20260507125421 | 48 | 38 | 0.9 | 1.7 | 0.00 | 0.02 | 0.02 | 84 | 1016.3 |
| 20260507124918 | 48 | 299 | 0.0 | 0.9 | 0.00 | 0.02 | 0.02 | 86 | 1016.4 |
| 20260507124414 | 48 | 326 | 0.0 | 1.7 | 0.00 | 0.02 | 0.02 | 87 | 1016.2 |
| 20260507123913 | 48 | 218 | 0.0 | 0.0 | 0.00 | 0.02 | 0.02 | 89 | 1016.5 |
| 20260507123409 | 48 | 29 | 0.0 | 0.9 | 0.00 | 0.02 | 0.02 | 90 | 1016.4 |
| 20260507122906 | 47 | 89 | 0.0 | 1.7 | 0.00 | 0.02 | 0.02 | 90 | 1016.4 |
| 20260507122401 | 47 | 120 | 0.0 | 1.7 | 0.00 | 0.02 | 0.02 | 90 | 1016.4 |
| 20260507121858 | 47 | 235 | 0.0 | 0.9 | 0.00 | 0.02 | 0.02 | 91 | 1016.6 |
| 20260507121353 | 47 | 269 | 0.0 | 0.0 | 0.00 | 0.02 | 0.02 | 93 | 1016.5 |
| 20260507120850 | 47 | 354 | 0.9 | 1.7 | 0.00 | 0.02 | 0.02 | 93 | 1016.3 |
| 20260507120346 | 47 | 269 | 0.0 | 0.9 | 0.00 | 0.02 | 0.02 | 94 | 1016.2 |
| 20260507115842 | 47 | 219 | 0.0 | 0.0 | 0.00 | 0.02 | 0.02 | 94 | 1016.2 |
| 20260507115338 | 46 | 224 | 0.0 | 0.0 | 0.00 | 0.02 | 0.02 | 94 | 1016.1 |
| 20260507114834 | 47 | 210 | 0.0 | 1.7 | 0.00 | 0.02 | 0.02 | 94 | 1016.3 |
| 20260507114331 | 47 | 210 | 1.7 | 1.7 | 0.00 | 0.02 | 0.02 | 95 | 1016.1 |
| 20260507113829 | 46 | 322 | 0.0 | 0.9 | 0.00 | 0.02 | 0.02 | 95 | 1016.0 |
| 20260507113326 | 46 | 283 | 0.0 | 0.0 | 0.00 | 0.02 | 0.02 | 95 | 1015.8 |
| 20260507112823 | 46 | 326 | 0.0 | 0.9 | 0.00 | 0.02 | 0.02 | 95 | 1015.8 |
| 20260507112320 | 46 | 256 | 0.0 | 0.0 | 0.00 | 0.02 | 0.02 | 95 | 1015.7 |
| 20260507111818 | 46 | 231 | 0.0 | 0.0 | 0.00 | 0.02 | 0.02 | 95 | 1016.0 |
| 20260507111314 | 46 | 269 | 0.0 | 0.9 | 0.00 | 0.02 | 0.02 | 95 | 1015.6 |
| 20260507110810 | 46 | 175 | 0.9 | 1.7 | 0.00 | 0.02 | 0.02 | 95 | 1015.5 |
| 20260507110307 | 46 | 225 | 0.0 | 1.7 | 0.00 | 0.02 | 0.02 | 95 | 1015.4 |
| 20260507105804 | 46 | 98 | 0.9 | 0.9 | 0.00 | 0.02 | 0.02 | 95 | 1015.5 |
| 20260507105300 | 46 | 326 | 0.0 | 1.7 | 0.00 | 0.02 | 0.02 | 95 | 1015.3 |
| 20260507104757 | 46 | 28 | 0.9 | 1.7 | 0.00 | 0.02 | 0.02 | 95 | 1015.4 |
| 20260507104254 | 46 | 307 | 0.0 | 0.9 | 0.00 | 0.02 | 0.02 | 95 | 1015.5 |
| 20260507103750 | 46 | 246 | 0.0 | 0.0 | 0.00 | 0.02 | 0.02 | 95 | 1015.5 |
| 20260507103246 | 46 | 293 | 0.9 | 1.7 | 0.00 | 0.02 | 0.02 | 95 | 1015.2 |
| 20260507102742 | 46 | 321 | 0.0 | 0.0 | 0.00 | 0.02 | 0.02 | 94 | 1015.0 |
| 20260507102234 | 46 | 48 | 0.0 | 0.9 | 0.00 | 0.02 | 0.02 | 94 | 1015.2 |
| 20260507101730 | 46 | 82 | 0.9 | 1.7 | 0.00 | 0.02 | 0.02 | 94 | 1015.0 |
| 20260507101225 | 46 | 150 | 0.0 | 1.7 | 0.00 | 0.02 | 0.02 | 94 | 1015.3 |
| 20260507100722 | 46 | 86 | 0.0 | 0.9 | 0.00 | 0.02 | 0.02 | 93 | 1015.3 |
| 20260507100221 | 46 | 194 | 0.9 | 2.6 | 0.00 | 0.02 | 0.02 | 93 | 1015.1 |
| 20260507095718 | 46 | 209 | 0.0 | 0.9 | 0.00 | 0.02 | 0.02 | 92 | 1014.9 |
| 20260507095215 | 46 | 119 | 0.0 | 0.0 | 0.00 | 0.02 | 0.02 | 91 | 1015.2 |
| 20260507094712 | 46 | 72 | 0.0 | 2.6 | 0.00 | 0.02 | 0.02 | 90 | 1015.0 |
| 20260507094209 | 46 | 84 | 0.0 | 2.6 | 0.00 | 0.02 | 0.02 | 89 | 1014.9 |
| 20260507093705 | 47 | 54 | 2.6 | 3.5 | 0.00 | 0.02 | 0.02 | 90 | 1014.9 |
| 20260507093204 | 47 | 83 | 2.6 | 2.6 | 0.00 | 0.02 | 0.02 | 89 | 1015.0 |
| 20260507092701 | 47 | 38 | 3.5 | 4.3 | 0.00 | 0.02 | 0.02 | 89 | 1015.0 |
| 20260507092157 | 47 | 19 | 3.5 | 4.3 | 0.00 | 0.02 | 0.02 | 89 | 1015.1 |
| 20260507091653 | 47 | 38 | 3.5 | 5.2 | 0.00 | 0.02 | 0.02 | 89 | 1015.0 |
| 20260507091150 | 47 | 44 | 5.2 | 6.1 | 0.00 | 0.02 | 0.02 | 91 | 1014.9 |
| 20260507090646 | 47 | 9 | 2.6 | 4.3 | 0.00 | 0.02 | 0.02 | 92 | 1014.9 |
| 20260507090143 | 47 | 27 | 2.6 | 5.2 | 0.00 | 0.02 | 0.02 | 92 | 1015.2 |
| 20260507085640 | 47 | 15 | 2.6 | 6.1 | 0.02 | 0.02 | 0.02 | 93 | 1015.0 |
| 20260507085137 | 47 | 12 | 5.2 | 7.0 | 0.02 | 0.02 | 0.02 | 95 | 1014.9 |
| 20260507084634 | 48 | 55 | 3.5 | 5.2 | 0.02 | 0.01 | 0.01 | 95 | 1014.7 |
| 20260507084130 | 48 | 358 | 2.6 | 2.6 | 0.02 | 0.01 | 0.01 | 95 | 1014.9 |
| 20260507083627 | 48 | 240 | 0.0 | 0.0 | 0.02 | 0.01 | 0.01 | 95 | 1015.0 |
| 20260507083124 | 48 | 147 | 0.0 | 0.0 | 0.02 | 0.01 | 0.01 | 95 | 1015.0 |
| 20260507082620 | 48 | 256 | 0.0 | 0.0 | 0.00 | 0.00 | 0.00 | 95 | 1015.1 |
| 20260507082116 | 48 | 221 | 0.0 | 0.0 | 0.00 | 0.00 | 0.00 | 95 | 1015.1 |
| 20260507081613 | 48 | 256 | 0.0 | 0.0 | 0.00 | 0.00 | 0.00 | 95 | 1015.0 |
| 20260507081110 | 48 | 127 | 0.9 | 0.9 | 0.00 | 0.00 | 0.00 | 95 | 1015.0 |
| 20260507080606 | 48 | 76 | 0.0 | 0.0 | 0.00 | 0.00 | 0.00 | 95 | 1014.8 |
| 20260507075557 | 48 | 113 | 0.0 | 0.9 | 0.00 | 0.00 | 0.00 | 95 | 1014.9 |
| 20260507075054 | 48 | 124 | 0.0 | 0.0 | 0.00 | 0.00 | 0.00 | 95 | 1014.8 |
| 20260507074551 | 48 | 89 | 0.0 | 0.0 | 0.00 | 0.00 | 0.00 | 95 | 1014.8 |
| 20260507074049 | 48 | 212 | 0.0 | 1.7 | 0.00 | 0.00 | 0.00 | 95 | 1015.1 |
| 20260507073545 | 48 | 233 | 0.0 | 0.9 | 0.00 | 0.00 | 0.00 | 95 | 1015.0 |
| 20260507073042 | 48 | 174 | 0.0 | 0.0 | 0.00 | 0.00 | 0.00 | 95 | 1014.8 |
| 20260507072539 | 48 | 49 | 0.0 | 0.0 | 0.00 | 0.00 | 0.00 | 95 | 1014.9 |
| 20260507072036 | 48 | 76 | 0.0 | 0.0 | 0.00 | 0.00 | 0.00 | 95 | 1014.7 |
| 20260507071534 | 48 | 228 | 0.0 | 0.0 | 0.00 | 0.00 | 0.00 | 95 | 1014.9 |
| 20260507071030 | 48 | 228 | 0.0 | 0.0 | 0.00 | 0.00 | 0.00 | 95 | 1015.0 |
| 20260507070527 | 48 | 228 | 0.0 | 0.0 | 0.00 | 0.00 | 0.00 | 95 | 1015.0 |
| 20260507070024 | 48 | 228 | 0.0 | 0.0 | 0.00 | 0.00 | 0.00 | 95 | 1014.8 |
| 20260507065520 | 48 | 197 | 0.0 | 1.7 | 0.00 | 0.00 | 0.00 | 95 | 1015.0 |
| 20260507065018 | 48 | 238 | 1.7 | 1.7 | 0.00 | 0.00 | 0.00 | 95 | 1015.0 |
| 20260507064516 | 48 | 124 | 0.0 | 0.0 | 0.00 | 0.00 | 0.00 | 95 | 1014.9 |
| 20260507064014 | 48 | 110 | 0.0 | 0.9 | 0.00 | 0.00 | 0.00 | 96 | 1014.6 |
| 20260507063510 | 48 | 235 | 0.0 | 1.7 | 0.00 | 0.00 | 0.00 | 96 | 1014.8 |
| 20260507063008 | 49 | 252 | 0.9 | 1.7 | 0.00 | 0.00 | 0.00 | 96 | 1014.9 |
| 20260507062504 | 49 | 107 | 0.0 | 0.0 | 0.00 | 0.00 | 0.00 | 96 | 1014.9 |
| 20260507062002 | 49 | 157 | 0.0 | 2.6 | 0.00 | 0.00 | 0.00 | 96 | 1015.0 |
| 20260507061459 | 49 | 246 | 0.0 | 1.7 | 0.02 | 0.00 | 0.00 | 95 | 1015.0 |
| 20260507060958 | 49 | 113 | 0.0 | 0.0 | 0.02 | 0.00 | 0.00 | 95 | 1015.2 |
| 20260507060454 | 49 | 113 | 0.0 | 0.0 | 0.00 | 0.00 | 0.00 | 95 | 1015.4 |
| 20260507055951 | 49 | 223 | 0.0 | 0.9 | 0.00 | 0.00 | 0.00 | 95 | 1015.4 |
| 20260507055446 | 49 | 221 | 0.9 | 1.7 | 0.00 | 0.00 | 0.00 | 95 | 1015.4 |
| 20260507054943 | 49 | 22 | 0.0 | 0.0 | 0.00 | 0.00 | 0.00 | 95 | 1015.4 |
| 20260507054439 | 49 | 55 | 0.0 | 0.9 | 0.00 | 0.00 | 0.00 | 95 | 1015.6 |
| 20260507053937 | 49 | 142 | 0.0 | 0.0 | 0.00 | 0.00 | 0.00 | 95 | 1015.3 |
| 20260507053434 | 49 | 224 | 0.0 | 0.0 | 0.00 | 0.00 | 0.00 | 95 | 1015.7 |
| 20260507052932 | 49 | 233 | 0.0 | 1.7 | 0.00 | 0.00 | 0.00 | 95 | 1015.5 |
| 20260507052430 | 49 | 246 | 1.7 | 2.6 | 0.00 | 0.00 | 0.00 | 95 | 1015.7 |
| 20260507051927 | 49 | 298 | 1.7 | 2.6 | 0.00 | 0.00 | 0.00 | 95 | 1015.6 |
| 20260507051424 | 49 | 222 | 0.0 | 0.9 | 0.00 | 0.00 | 0.00 | 95 | 1015.6 |
| 20260507050921 | 49 | 130 | 0.0 | 0.9 | 0.00 | 0.00 | 0.00 | 94 | 1015.6 |
| 20260507050418 | 49 | 214 | 0.0 | 1.7 | 0.00 | 0.00 | 0.00 | 94 | 1015.8 |
| 20260507045915 | 49 | 229 | 0.9 | 1.7 | 0.00 | 0.00 | 0.00 | 94 | 1015.7 |
| 20260507045411 | 49 | 241 | 0.9 | 1.7 | 0.00 | 0.00 | 0.00 | 94 | 1015.6 |
| 20260507044908 | 49 | 119 | 0.0 | 0.0 | 0.00 | 0.00 | 0.00 | 94 | 1015.7 |
| 20260507044405 | 49 | 159 | 0.0 | 1.7 | 0.00 | 0.00 | 0.00 | 93 | 1016.0 |
| 20260507043901 | 49 | 131 | 0.0 | 0.0 | 0.00 | 0.00 | 0.00 | 93 | 1015.5 |
| 20260507043357 | 49 | 352 | 1.7 | 2.6 | 0.00 | 0.00 | 0.00 | 93 | 1015.6 |
| 20260507042854 | 49 | 18 | 1.7 | 2.6 | 0.00 | 0.00 | 0.00 | 93 | 1015.6 |
| 20260507042350 | 49 | 57 | 0.9 | 2.6 | 0.00 | 0.00 | 0.00 | 93 | 1015.4 |
| 20260507041846 | 49 | 5 | 0.0 | 2.6 | 0.00 | 0.00 | 0.00 | 92 | 1015.4 |
| 20260507041343 | 49 | 333 | 1.7 | 2.6 | 0.00 | 0.00 | 0.00 | 92 | 1015.6 |
| 20260507040841 | 50 | 296 | 0.0 | 1.7 | 0.00 | 0.00 | 0.00 | 91 | 1015.5 |
| 20260507040336 | 50 | 16 | 0.0 | 1.7 | 0.00 | 0.00 | 0.00 | 91 | 1015.4 |
| 20260507035833 | 50 | 342 | 1.7 | 4.3 | 0.00 | 0.61 | 0.61 | 90 | 1015.2 |
| 20260507035328 | 50 | 88 | 3.5 | 6.1 | 0.00 | 0.61 | 0.61 | 90 | 1015.4 |
| 20260507034826 | 50 | 88 | 5.2 | 7.0 | 0.00 | 0.61 | 0.61 | 90 | 1015.5 |
| 20260507034323 | 50 | 55 | 6.1 | 6.1 | 0.00 | 0.61 | 0.61 | 91 | 1015.3 |
| 20260507033821 | 50 | 44 | 2.6 | 4.3 | 0.02 | 0.61 | 0.61 | 92 | 1015.3 |
| 20260507033318 | 50 | 13 | 4.3 | 7.8 | 0.02 | 0.61 | 0.61 | 91 | 1015.3 |
| 20260507032815 | 50 | 42 | 3.5 | 4.3 | 0.00 | 0.61 | 0.61 | 92 | 1015.5 |
| 20260507032311 | 50 | 3 | 2.6 | 3.5 | 0.00 | 0.61 | 0.61 | 91 | 1015.0 |
| 20260507031808 | 50 | 67 | 4.3 | 5.2 | 0.00 | 0.61 | 0.61 | 92 | 1015.3 |
| 20260507031305 | 50 | 41 | 4.3 | 8.7 | 0.00 | 0.61 | 0.61 | 92 | 1015.4 |
| 20260507030801 | 50 | 45 | 7.0 | 11.3 | 0.02 | 0.61 | 0.61 | 93 | 1016.3 |
| 20260507030259 | 51 | 6 | 4.3 | 6.1 | 0.02 | 0.61 | 0.61 | 93 | 1015.4 |
| 20260507025756 | 51 | 17 | 2.6 | 7.8 | 0.00 | 0.60 | 0.60 | 93 | 1015.3 |
| 20260507025253 | 51 | 55 | 5.2 | 6.1 | 0.02 | 0.60 | 0.60 | 93 | 1014.3 |
| 20260507024751 | 51 | 73 | 3.5 | 7.0 | 0.02 | 0.60 | 0.60 | 94 | 1014.5 |
| 20260507024248 | 51 | 62 | 2.6 | 7.8 | 0.00 | 0.60 | 0.60 | 94 | 1014.7 |
| 20260507023743 | 51 | 65 | 3.5 | 4.3 | 0.02 | 0.60 | 0.60 | 95 | 1015.1 |
| 20260507023240 | 52 | 10 | 3.5 | 4.3 | 0.02 | 0.60 | 0.60 | 95 | 1015.4 |
| 20260507022738 | 52 | 50 | 1.7 | 2.6 | 0.02 | 0.59 | 0.59 | 95 | 1015.0 |
| 20260507022233 | 52 | 331 | 0.0 | 1.7 | 0.02 | 0.59 | 0.59 | 95 | 1015.5 |
| 20260507021730 | 52 | 20 | 0.0 | 1.7 | 0.02 | 0.59 | 0.59 | 95 | 1015.1 |
| 20260507021225 | 52 | 26 | 0.9 | 1.7 | 0.00 | 0.59 | 0.59 | 94 | 1015.2 |
| 20260507020724 | 52 | 246 | 0.0 | 0.0 | 0.00 | 0.59 | 0.59 | 94 | 1014.9 |
| 20260507020220 | 52 | 315 | 0.0 | 0.9 | 0.00 | 0.59 | 0.59 | 94 | 1014.8 |
| 20260507015718 | 52 | 343 | 0.9 | 0.9 | 0.00 | 0.59 | 0.59 | 94 | 1014.6 |
| 20260507015215 | 52 | 246 | 0.0 | 0.0 | 0.00 | 0.59 | 0.59 | 94 | 1014.6 |
| 20260507014712 | 52 | 141 | 0.0 | 0.0 | 0.00 | 0.59 | 0.59 | 93 | 1014.5 |
| 20260507014208 | 52 | 296 | 2.6 | 2.6 | 0.00 | 0.59 | 0.59 | 93 | 1014.5 |
| 20260507013705 | 52 | 17 | 1.7 | 2.6 | 0.00 | 0.59 | 0.59 | 92 | 1014.6 |
| 20260507013202 | 52 | 3 | 1.7 | 3.5 | 0.00 | 0.59 | 0.59 | 92 | 1014.6 |